SCP
0 0 -0 -0 -0 -0 -0 -1 -1 -1 -1 -1 -1 -0 -0 -0 -0 -0 -0 -0 -0 -0 -0 -0 -0 -0 -0 -0 -0 0 0 0 0 0 0 0 0 0 0 0 0 0 0
-0 -0 -0 -0 -0 -1 -1 -0 -1 -1 -1 -1 -1 -1 -0 -0 -0 -0 -0 -0 -0 -0 -0 -0 -0 -0 -0 -0 0 0 0 0 0 0 0 0 0 0 0 0 0 0 0
0 -0 -0 -0 -0 -0 -0 -0 -1 -1 -1 -1 -1 -1 -0 -0 -0 -0 -0 -0 -0 -0 -0 -0 -0 -0 0 0 0 0 0 0 0 0 0 0 0 0 0 0 0 0 0
0 0 -0 -0 -0 -0 -0 -0 -0 -1 -1 -1 -0 -0 -0 -0 -0 -0 -0 -0 -0 -0 -0 -0 -0 0 0 0 0 0 0 0 0 0 0 0 0 0 0 0 0 0 0
0 0 0 -0 -0 -0 -0 -0 -0 -0 -1 -1 -1 -0 -0 -0 -0 -0 -0 -0 -0 -0 -0 -0 -0 0 0 0 0 0 0 0 0 0 0 0 0 0 0 0 0 0 0
1 0 0 0 -0 -0 -0 -0 -0 -0 -0 -0 -1 -0 -0 -0 -0 -0 -0 -0 -0 0 0 0 0 0 0 0 0 0 0 0 0 0 0 0 0 0 0 0 0 0 0
0 1 1 0 0 0 -0 -0 -0 -0 -0 -0 -0 -0 -0 -0 -0 -0 -0 -0 0 0 0 0 0 0 0 0 0 0 0 0 0 0 0 0 0 0 0 0 0 0 0
0 1 1 0 0 0 0 0 0 -0 -0 -0 -0 -0 -0 -0 -0 -0 -0 -0 0 0 0 0 0 0 0 0 0 0 0 0 0 0 0 0 0 0 0 0 0 0 0
0 0 1 1 1 0 0 0 0 0 0 -0 -0 -0 -0 -0 -0 -0 -0 0 0 0 0 0 0 0 0 0 0 0 0 0 0 0 0 0 0 0 0 0 0 0 0
0 0 0 0 1 1 1 0 0 0 0 0 0 0 0 0 0 0 0 0 0 0 0 0 0 0 0 0 0 0 0 0 0 0 0 0 0 0 0 0 0 0 0
1 0 0 0 1 1 1 1 1 0 0 0 0 0 0 0 0 0 0 0 0 0 0 0 0 0 0 0 0 0 0 0 0 0 0 0 0 0 0 0 0 0 0
1 1 1 1 1 1 1 1 1 1 1 1 1 1 0 0 0 0 0 0 0 0 0 0 0 0 0 0 0 0 0 0 0 0 0 0 0 0 0 0 0 0 0
1 1 1 1 1 1 1 2 2 2 1 1 1 1 1 0 0 0 0 0 0 0 0 0 0 0 0 0 0 0 0 0 0 0 0 0 0 0 0 0 0 0 0
0 1 1 1 1 1 2 2 1 2 2 1 1 1 0 0 0 0 0 0 0 0 0 0 0 0 0 0 0 0 0 0 0 0 0 0 0 0 0 0 0 0 0
0 0 1 2 2 1 1 2 2 2 2 2 1 0 0 0 0 0 0 0 0 0 0 0 0 0 0 0 0 0 0 0 0 0 0 0 0 0 0 0 0 0 0
0 0 0 1 1 2 2 2 2 2 2 1 1 1 0 0 0 0 0 0 0 0 0 0 0 0 0 0 0 0 0 0 0 0 0 0 0 0 0 0 0 0 0
0 0 0 1 3 2 2 2 2 2 2 1 1 1 0 0 0 0 0 0 0 0 0 0 0 0 0 0 0 0 0 0 0 0 0 0 0 0 0 0 0 0 0
0 0 0 0 2 2 2 3 3 3 2 2 2 1 1 0 0 0 0 0 0 0 0 0 0 0 0 0 0 0 0 0 0 0 0 0 0 0 0 0 0 0 0
0 0 0 0 1 2 2 3 3 3 3 3 2 2 1 1 0 0 0 0 0 0 0 0 0 0 0 0 0 0 0 0 0 0 0 0 0 0 0 0 0 0 0
0 0 0 0 0 2 3 3 3 2 3 3 2 2 1 1 0 0 0 0 0 0 0 0 0 0 0 0 0 0 0 0 0 0 0 0 0 0 0 0 0 0 0
0 0 0 0 0 1 3 3 2 2 2 2 2 2 2 1 1 0 0 0 0 0 0 0 0 0 0 0 0 0 0 0 0 0 0 0 0 0 0 0 0 0 0
0 0 0 0 0 0 2 4 3 3 2 3 2 2 2 2 1 1 0 0 0 0 0 0 0 0 0 0 0 0 0 0 0 0 0 0 0 0 0 0 0 0 0
0 0 0 0 0 0 0 3 2 2 2 2 2 2 1 1 2 2 1 1 0 0 0 0 0 0 0 0 0 0 0 0 0 0 0 0 0 0 0 0 0 0 0
0 0 0 0 0 0 0 1 2 3 3 3 3 2 2 2 1 2 2 1 0 0 0 0 0 0 0 0 0 0 0 0 0 0 0 0 0 0 0 0 0 0 0
0 0 0 0 0 0 0 0 2 2 2 1 3 2 3 2 2 1 1 1 1 0 0 0 0 0 0 0 0 0 0 0 0 0 0 0 0 0 0 0 0 0 0
0 0 0 0 0 0 0 0 0 1 1 1 1 2 2 3 2 2 1 1 1 0 0 0 0 0 0 0 0 0 0 0 0 0 0 0 0 0 0 0 0 0 0
Wind_Speed_500mb
35 39 37 36 33 27 21 24 35 39 42 41 34 31 33 36 39 39 40 40 37 33 32 29 25 23 20 19 19 19 21 21 16 16 26 27 29 30 32 34 35 36 35
33 45 40 36 34 29 24 24 32 38 40 39 35 32 31 32 37 38 37 36 35 30 28 26 22 20 16 13 15 16 18 20 22 21 17 22 25 28 31 32 32 33 35
33 48 43 38 34 30 26 24 29 35 39 38 37 35 33 33 36 38 37 35 33 28 25 24 20 19 15 9 11 11 13 13 17 17 11 18 21 25 29 31 32 34 35
32 42 39 36 33 30 28 24 27 33 36 38 38 37 37 36 37 38 38 34 31 27 26 25 21 18 13 8 4 6 5 8 12 15 13 13 17 22 25 30 31 33 35
31 39 37 35 32 29 27 26 24 29 34 36 39 40 39 39 39 39 39 34 30 28 27 25 20 17 13 8 5 2 1 3 10 15 13 8 14 19 23 27 31 33 33
25 37 34 34 31 28 27 27 26 25 31 35 38 40 41 40 41 42 42 36 31 29 28 24 20 17 14 11 9 7 7 5 7 12 10 7 11 17 23 27 29 31 31
16 28 32 30 30 30 29 27 27 26 27 33 35 38 40 42 44 46 45 38 33 30 28 24 20 17 15 14 12 11 10 10 8 9 9 9 11 16 21 25 28 30 30
9 11 27 29 28 30 30 29 28 28 27 31 35 36 38 41 45 48 47 41 36 32 29 23 19 17 16 16 14 13 11 11 10 10 9 12 11 13 25 22 27 29 27
9 5 12 27 31 31 32 31 30 29 29 29 34 36 37 40 44 48 47 44 40 36 30 23 20 18 17 16 14 14 12 11 9 6 7 12 10 12 22 22 26 26 26
9 7 11 20 32 34 35 35 34 33 33 32 33 37 38 40 43 46 47 45 42 37 32 26 21 18 17 16 14 13 13 10 7 3 8 10 9 14 19 20 23 23 24
17 15 16 18 25 33 37 38 39 38 38 38 37 38 41 43 45 46 47 46 44 40 35 29 23 20 19 17 15 13 12 9 7 5 9 9 7 13 16 18 19 21 25
24 25 24 24 24 29 36 42 43 43 44 44 43 43 44 46 47 47 48 47 45 41 38 33 27 22 21 18 16 12 11 8 6 7 11 10 7 12 15 18 17 20 27
19 19 23 31 32 31 32 36 46 47 47 49 49 48 48 49 50 51 51 50 48 44 41 37 29 23 22 20 17 15 13 10 8 8 10 10 10 13 13 12 15 19 23
29 28 29 30 30 37 36 36 38 48 51 52 55 54 56 55 53 52 53 53 49 46 42 37 31 25 24 22 20 20 17 13 12 7 5 12 13 14 13 12 14 18 21
34 42 39 36 36 37 40 41 40 42 45 52 59 62 62 60 56 54 52 53 50 46 43 39 33 29 25 25 23 24 22 17 12 10 8 12 16 13 12 12 10 14 18
39 35 42 45 36 43 43 42 44 47 44 44 54 66 65 62 59 56 52 52 50 47 44 41 36 32 30 30 27 28 28 19 15 14 13 11 14 14 13 11 11 13 17
51 46 37 44 48 48 49 49 47 47 47 44 41 54 65 64 59 57 55 53 48 47 45 42 40 37 35 31 26 27 25 23 19 15 18 13 14 12 13 10 8 12 14
47 51 55 48 46 53 62 53 52 50 50 47 43 45 56 61 59 59 57 55 49 47 47 44 43 41 38 34 31 28 25 25 20 18 21 19 17 14 15 11 12 10 13
56 58 54 60 61 52 61 63 64 60 52 53 50 49 49 52 60 61 60 56 52 49 47 44 44 40 43 39 33 29 23 22 18 18 21 20 19 17 17 16 14 12 15
47 53 56 53 63 59 57 70 65 71 58 57 51 48 51 50 57 55 62 60 57 54 49 45 46 38 39 37 33 28 26 24 21 23 24 23 20 18 19 22 20 19 23
28 41 54 53 46 56 56 66 65 66 67 66 64 58 57 53 57 57 57 55 58 60 54 47 46 40 39 40 34 32 26 26 27 29 27 25 22 19 22 23 23 25 25
39 32 24 40 42 42 55 61 74 74 80 76 69 62 57 51 52 54 57 55 52 56 61 57 55 49 44 45 38 31 19 20 26 28 26 24 23 21 24 24 24 24 24
59 59 49 32 27 46 48 57 67 85 81 82 75 70 59 54 50 51 53 58 61 54 59 63 63 61 55 51 47 34 20 18 28 22 28 21 22 22 25 24 24 23 20
60 64 59 48 40 32 30 47 63 77 88 75 72 63 62 62 60 53 50 61 63 64 63 61 68 68 61 60 55 55 39 28 26 21 26 25 25 25 24 23 22 20 19
60 68 67 57 45 47 46 30 45 63 81 87 71 65 71 62 65 57 47 51 64 67 68 71 67 75 72 64 66 64 51 39 37 19 27 28 26 21 21 21 22 20 22
58 60 71 68 60 51 46 40 33 57 66 84 88 81 74 68 63 56 51 52 60 70 72 72 73 77 76 69 69 68 66 60 45 31 18 36 32 28 27 26 24 18 22
Wind_Direction_500mb
186 175 172 168 167 173 167 162 161 156 153 153 155 152 145 155 157 155 152 151 148 138 134 136 135 122 117 105 94 89 80 68 66 65 54 52 51 49 42 36 32 27 25
193 179 175 171 171 174 169 163 166 164 162 162 164 161 155 156 162 160 158 156 154 146 143 144 145 133 133 117 96 88 82 80 59 65 64 48 40 41 38 33 29 25 25
172 176 176 175 175 174 173 167 172 175 174 174 173 169 165 165 170 168 165 162 159 155 151 151 153 146 149 136 98 83 87 72 55 50 49 38 32 32 31 28 24 22 25
174 176 179 177 177 178 175 173 174 179 183 184 181 178 175 175 178 176 172 165 164 163 157 154 157 155 168 169 124 81 84 53 33 19 20 24 24 24 25 24 21 22 22
182 184 183 183 183 185 185 181 179 181 186 190 190 188 187 186 185 182 177 171 169 165 161 161 164 170 183 204 206 258 340 28 7 354 348 2 11 13 16 20 17 21 22
183 190 189 188 189 191 193 193 188 187 190 191 194 196 197 194 191 187 183 178 175 174 171 168 174 185 194 218 233 245 269 282 330 345 353 349 356 4 7 13 14 20 20
171 198 201 200 197 198 198 200 199 195 195 197 197 199 200 199 197 191 188 186 183 180 175 175 180 192 204 219 235 246 258 270 283 314 345 339 347 358 360 0 11 18 18
138 184 207 210 211 210 208 205 205 204 202 200 199 198 200 201 200 195 193 193 192 186 184 182 185 197 208 226 235 254 262 273 286 296 320 329 340 343 347 1 8 16 17
153 179 208 214 214 218 220 217 212 210 209 206 204 201 201 202 202 201 201 201 201 198 199 197 198 204 213 221 239 252 268 282 293 305 328 335 325 319 350 360 8 13 13
198 208 219 226 226 227 226 225 223 218 215 213 210 207 207 206 207 208 209 210 210 210 211 212 210 211 219 224 236 250 264 274 269 268 317 332 305 323 348 356 8 8 12
249 238 242 241 239 236 238 235 228 225 221 218 215 213 213 213 213 214 216 217 216 217 218 221 216 215 220 230 237 245 255 255 250 272 306 308 296 331 344 351 2 7 10
265 263 257 255 250 244 242 238 234 230 228 225 223 220 218 219 219 220 221 221 220 220 221 222 219 220 221 230 237 238 241 235 242 279 303 295 291 325 330 343 353 4 13
288 274 269 260 266 258 250 245 236 234 234 231 229 226 224 224 223 223 223 224 223 222 222 223 224 224 227 229 231 223 224 229 250 283 321 310 301 310 310 329 345 5 13
282 285 269 263 267 258 255 249 248 242 240 238 234 230 229 229 228 227 228 227 227 226 226 227 229 227 230 230 229 219 226 240 268 272 292 294 282 280 306 320 340 358 4
291 290 274 265 259 255 248 248 247 246 249 251 243 234 234 234 233 232 232 233 230 230 230 232 235 233 232 236 236 229 232 244 259 266 249 265 278 289 294 302 331 343 357
306 306 276 261 258 251 248 249 249 250 253 257 251 241 236 238 238 237 237 238 236 235 234 236 238 236 230 235 243 242 235 242 252 265 258 275 268 281 287 295 330 340 348
287 286 288 280 261 249 249 252 248 250 250 253 257 245 239 240 241 241 241 242 242 242 241 238 238 236 232 234 237 229 240 241 246 264 253 256 254 265 267 281 300 327 338
284 277 273 273 277 256 244 249 247 248 249 249 253 247 242 244 242 243 244 246 246 243 244 242 241 238 232 230 228 233 246 243 245 254 240 242 243 249 253 269 286 302 316
290 284 268 260 264 269 254 245 246 243 251 252 250 251 245 247 247 241 243 247 247 245 242 241 238 241 232 229 232 235 243 227 234 247 228 239 241 244 253 250 255 276 281
284 276 274 269 254 254 257 245 242 247 246 250 259 259 257 251 252 247 246 245 246 245 240 237 235 238 225 218 227 240 240 228 236 224 223 241 242 244 247 245 255 263 283
312 286 275 275 254 248 249 248 239 241 245 245 251 252 253 255 256 260 251 249 248 245 241 236 230 223 218 218 230 241 236 231 222 216 216 229 236 236 246 248 260 273 287
22 4 320 280 264 248 248 248 244 239 238 240 247 248 243 249 256 258 259 253 249 248 240 231 227 221 220 226 230 227 194 213 216 216 223 224 235 235 244 253 258 266 275
20 20 17 8 295 265 248 246 243 243 241 236 238 244 243 249 254 262 262 255 254 250 244 233 227 224 224 228 230 215 192 209 207 217 233 225 230 232 241 245 249 251 277
8 10 14 17 15 1 278 245 244 246 242 241 244 241 246 249 246 253 264 265 262 257 247 239 228 228 227 230 226 219 226 215 192 193 211 216 218 225 231 225 228 252 284
357 359 1 8 5 8 18 310 251 252 248 244 239 241 245 248 246 246 258 265 263 259 254 245 235 230 227 232 227 216 214 218 220 199 191 196 198 195 197 209 233 257 292
346 343 349 353 356 352 357 2 318 254 251 247 242 238 239 246 244 244 251 261 262 258 258 253 241 233 229 230 226 226 228 225 222 217 197 193 196 186 199 213 236 267 289
Wind_Speed_850mb
35 39 37 36 33 27 21 24 35 39 42 41 34 31 33 36 39 39 40 40 37 33 32 29 25 23 20 19 19 19 21 21 16 16 26 27 29 30 32 34 35 36 35
33 45 40 36 34 29 24 24 32 38 40 39 35 32 31 32 37 38 37 36 35 30 28 26 22 20 16 13 15 16 18 20 22 21 17 22 25 28 31 32 32 33 35
33 48 43 38 34 30 26 24 29 35 39 38 37 35 33 33 36 38 37 35 33 28 25 24 20 19 15 9 11 11 13 13 17 17 11 18 21 25 29 31 32 34 35
32 42 39 36 33 30 28 24 27 33 36 38 38 37 37 36 37 38 38 34 31 27 26 25 21 18 13 8 4 6 5 8 12 15 13 13 17 22 25 30 31 33 35
31 39 37 35 32 29 27 26 24 29 34 36 39 40 39 39 39 39 39 34 30 28 27 25 20 17 13 8 5 2 1 3 10 15 13 8 14 19 23 27 31 33 33
25 37 34 34 31 28 27 27 26 25 31 35 38 40 41 40 41 42 42 36 31 29 28 24 20 17 14 11 9 7 7 5 7 12 10 7 11 17 23 27 29 31 31
16 28 32 30 30 30 29 27 27 26 27 33 35 38 40 42 44 46 45 38 33 30 28 24 20 17 15 14 12 11 10 10 8 9 9 9 11 16 21 25 28 30 30
9 11 27 29 28 30 30 29 28 28 27 31 35 36 38 41 45 48 47 41 36 32 29 23 19 17 16 16 14 13 11 11 10 10 9 12 11 13 25 22 27 29 27
9 5 12 27 31 31 32 31 30 29 29 29 34 36 37 40 44 48 47 44 40 36 30 23 20 18 17 16 14 14 12 11 9 6 7 12 10 12 22 22 26 26 26
9 7 11 20 32 34 35 35 34 33 33 32 33 37 38 40 43 46 47 45 42 37 32 26 21 18 17 16 14 13 13 10 7 3 8 10 9 14 19 20 23 23 24
17 15 16 18 25 33 37 38 39 38 38 38 37 38 41 43 45 46 47 46 44 40 35 29 23 20 19 17 15 13 12 9 7 5 9 9 7 13 16 18 19 21 25
24 25 24 24 24 29 36 42 43 43 44 44 43 43 44 46 47 47 48 47 45 41 38 33 27 22 21 18 16 12 11 8 6 7 11 10 7 12 15 18 17 20 27
19 19 23 31 32 31 32 36 46 47 47 49 49 48 48 49 50 51 51 50 48 44 41 37 29 23 22 20 17 15 13 10 8 8 10 10 10 13 13 12 15 19 23
29 28 29 30 30 37 36 36 38 48 51 52 55 54 56 55 53 52 53 53 49 46 42 37 31 25 24 22 20 20 17 13 12 7 5 12 13 14 13 12 14 18 21
34 42 39 36 36 37 40 41 40 42 45 52 59 62 62 60 56 54 52 53 50 46 43 39 33 29 25 25 23 24 22 17 12 10 8 12 16 13 12 12 10 14 18
39 35 42 45 36 43 43 42 44 47 44 44 54 66 65 62 59 56 52 52 50 47 44 41 36 32 30 30 27 28 28 19 15 14 13 11 14 14 13 11 11 13 17
51 46 37 44 48 48 49 49 47 47 47 44 41 54 65 64 59 57 55 53 48 47 45 42 40 37 35 31 26 27 25 23 19 15 18 13 14 12 13 10 8 12 14
47 51 55 48 46 53 62 53 52 50 50 47 43 45 56 61 59 59 57 55 49 47 47 44 43 41 38 34 31 28 25 25 20 18 21 19 17 14 15 11 12 10 13
56 58 54 60 61 52 61 63 64 60 52 53 50 49 49 52 60 61 60 56 52 49 47 44 44 40 43 39 33 29 23 22 18 18 21 20 19 17 17 16 14 12 15
47 53 56 53 63 59 57 70 65 71 58 57 51 48 51 50 57 55 62 60 57 54 49 45 46 38 39 37 33 28 26 24 21 23 24 23 20 18 19 22 20 19 23
28 41 54 53 46 56 56 66 65 66 67 66 64 58 57 53 57 57 57 55 58 60 54 47 46 40 39 40 34 32 26 26 27 29 27 25 22 19 22 23 23 25 25
39 32 24 40 42 42 55 61 74 74 80 76 69 62 57 51 52 54 57 55 52 56 61 57 55 49 44 45 38 31 19 20 26 28 26 24 23 21 24 24 24 24 24
59 59 49 32 27 46 48 57 67 85 81 82 75 70 59 54 50 51 53 58 61 54 59 63 63 61 55 51 47 34 20 18 28 22 28 21 22 22 25 24 24 23 20
60 64 59 48 40 32 30 47 63 77 88 75 72 63 62 62 60 53 50 61 63 64 63 61 68 68 61 60 55 55 39 28 26 21 26 25 25 25 24 23 22 20 19
60 68 67 57 45 47 46 30 45 63 81 87 71 65 71 62 65 57 47 51 64 67 68 71 67 75 72 64 66 64 51 39 37 19 27 28 26 21 21 21 22 20 22
58 60 71 68 60 51 46 40 33 57 66 84 88 81 74 68 63 56 51 52 60 70 72 72 73 77 76 69 69 68 66 60 45 31 18 36 32 28 27 26 24 18 22
Wind_Direction_850mb
186 175 172 168 167 173 167 162 161 156 153 153 155 152 145 155 157 155 152 151 148 138 134 136 135 122 117 105 94 89 80 68 66 65 54 52 51 49 42 36 32 27 25
193 179 175 171 171 174 169 163 166 164 162 162 164 161 155 156 162 160 158 156 154 146 143 144 145 133 133 117 96 88 82 80 59 65 64 48 40 41 38 33 29 25 25
172 176 176 175 175 174 173 167 172 175 174 174 173 169 165 165 170 168 165 162 159 155 151 151 153 146 149 136 98 83 87 72 55 50 49 38 32 32 31 28 24 22 25
174 176 179 177 177 178 175 173 174 179 183 184 181 178 175 175 178 176 172 165 164 163 157 154 157 155 168 169 124 81 84 53 33 19 20 24 24 24 25 24 21 22 22
182 184 183 183 183 185 185 181 179 181 186 190 190 188 187 186 185 182 177 171 169 165 161 161 164 170 183 204 206 258 340 28 7 354 348 2 11 13 16 20 17 21 22
183 190 189 188 189 191 193 193 188 187 190 191 194 196 197 194 191 187 183 178 175 174 171 168 174 185 194 218 233 245 269 282 330 345 353 349 356 4 7 13 14 20 20
171 198 201 200 197 198 198 200 199 195 195 197 197 199 200 199 197 191 188 186 183 180 175 175 180 192 204 219 235 246 258 270 283 314 345 339 347 358 360 0 11 18 18
138 184 207 210 211 210 208 205 205 204 202 200 199 198 200 201 200 195 193 193 192 186 184 182 185 197 208 226 235 254 262 273 286 296 320 329 340 343 347 1 8 16 17
153 179 208 214 214 218 220 217 212 210 209 206 204 201 201 202 202 201 201 201 201 198 199 197 198 204 213 221 239 252 268 282 293 305 328 335 325 319 350 360 8 13 13
198 208 219 226 226 227 226 225 223 218 215 213 210 207 207 206 207 208 209 210 210 210 211 212 210 211 219 224 236 250 264 274 269 268 317 332 305 323 348 356 8 8 12
249 238 242 241 239 236 238 235 228 225 221 218 215 213 213 213 213 214 216 217 216 217 218 221 216 215 220 230 237 245 255 255 250 272 306 308 296 331 344 351 2 7 10
265 263 257 255 250 244 242 238 234 230 228 225 223 220 218 219 219 220 221 221 220 220 221 222 219 220 221 230 237 238 241 235 242 279 303 295 291 325 330 343 353 4 13
288 274 269 260 266 258 250 245 236 234 234 231 229 226 224 224 223 223 223 224 223 222 222 223 224 224 227 229 231 223 224 229 250 283 321 310 301 310 310 329 345 5 13
282 285 269 263 267 258 255 249 248 242 240 238 234 230 229 229 228 227 228 227 227 226 226 227 229 227 230 230 229 219 226 240 268 272 292 294 282 280 306 320 340 358 4
291 290 274 265 259 255 248 248 247 246 249 251 243 234 234 234 233 232 232 233 230 230 230 232 235 233 232 236 236 229 232 244 259 266 249 265 278 289 294 302 331 343 357
306 306 276 261 258 251 248 249 249 250 253 257 251 241 236 238 238 237 237 238 236 235 234 236 238 236 230 235 243 242 235 242 252 265 258 275 268 281 287 295 330 340 348
287 286 288 280 261 249 249 252 248 250 250 253 257 245 239 240 241 241 241 242 242 242 241 238 238 236 232 234 237 229 240 241 246 264 253 256 254 265 267 281 300 327 338
284 277 273 273 277 256 244 249 247 248 249 249 253 247 242 244 242 243 244 246 246 243 244 242 241 238 232 230 228 233 246 243 245 254 240 242 243 249 253 269 286 302 316
290 284 268 260 264 269 254 245 246 243 251 252 250 251 245 247 247 241 243 247 247 245 242 241 238 241 232 229 232 235 243 227 234 247 228 239 241 244 253 250 255 276 281
284 276 274 269 254 254 257 245 242 247 246 250 259 259 257 251 252 247 246 245 246 245 240 237 235 238 225 218 227 240 240 228 236 224 223 241 242 244 247 245 255 263 283
312 286 275 275 254 248 249 248 239 241 245 245 251 252 253 255 256 260 251 249 248 245 241 236 230 223 218 218 230 241 236 231 222 216 216 229 236 236 246 248 260 273 287
22 4 320 280 264 248 248 248 244 239 238 240 247 248 243 249 256 258 259 253 249 248 240 231 227 221 220 226 230 227 194 213 216 216 223 224 235 235 244 253 258 266 275
20 20 17 8 295 265 248 246 243 243 241 236 238 244 243 249 254 262 262 255 254 250 244 233 227 224 224 228 230 215 192 209 207 217 233 225 230 232 241 245 249 251 277
8 10 14 17 15 1 278 245 244 246 242 241 244 241 246 249 246 253 264 265 262 257 247 239 228 228 227 230 226 219 226 215 192 193 211 216 218 225 231 225 228 252 284
357 359 1 8 5 8 18 310 251 252 248 244 239 241 245 248 246 246 258 265 263 259 254 245 235 230 227 232 227 216 214 218 220 199 191 196 198 195 197 209 233 257 292
346 343 349 353 356 352 357 2 318 254 251 247 242 238 239 246 244 244 251 261 262 258 258 253 241 233 229 230 226 226 228 225 222 217 197 193 196 186 199 213 236 267 289